Regional Weather Roundup
Issued by NWS

Home | Current Version | Previous Version | Graphics & Text | Print | Product List | Glossary On
Versions: 1 2 3 4 5 6 7 8 9 10 11 12 13 14 15 16 17 18 19 20 21 22 23 24 25 26 27 28 29 30 31 32 33 34 35 36 37 38 39 40 41 42 43 44 45 46 47 48 49 50
000
ASUS43 KLSX 032007
RWRMO

WEATHER SUMMARY FOR MISSOURI
NATIONAL WEATHER SERVICE SPRINGFIELD MO
300 PM CDT SUN MAY 03 2015

NOTE: "FAIR" INDICATES FEW OR NO CLOUDS BELOW 12,000 FEET WITH NO
       SIGNIFICANT WEATHER AND/OR OBSTRUCTIONS TO VISIBILITY.
       CURRENT SKY AND/OR WEATHER CONDITIONS ARE NOT AVAILABLE FOR
       CHILLICOTHE AND FARMINGTON.

MOZ001>031-035>038-043-044-053-054-032100-
...NORTHERN AND WESTERN MISSOURI...

CITY           SKY/WX    TMP DP  RH WIND       PRES   REMARKS
KANSAS CTY INT PTSUNNY   81  58  45 S20G33    29.82F
KANSAS C DTWN  MOSUNNY   84  58  40 S20G30    29.82F
LEE`S SUMMIT   PTSUNNY   80  56  43 SW16G32   29.85F
ST JOSEPH      MOSUNNY   83  58  42 S16       29.80S
CHILLICOTHE      N/A     83  58  42 S17G30    29.83F
KIRKSVILLE     MOSUNNY   79  58  48 S12G28    29.88S

$$
MOZ066>068-077>081-088>096-101>105-032100-
...SOUTHWEST MISSOURI...

CITY           SKY/WX    TMP DP  RH WIND       PRES   REMARKS
SPRINGFIELD    SUNNY     81  54  39 S15G25    29.96F
JOPLIN         PTSUNNY   78  57  48 SW17      29.95F

$$
MOZ032>034-039>042-045>050-055>058-069>072-032100-
...CENTRAL MISSOURI...

CITY           SKY/WX    TMP DP  RH WIND       PRES   REMARKS
COLUMBIA       PTSUNNY   81  56  42 S15G22    29.92F
JEFFERSON CITY PTSUNNY   82  53  36 S14G24    29.91F
ROLLA          MOSUNNY   81  53  37 S17G24    29.95F
SEDALIA        CLOUDY    81  55  40 S21G28    29.91F
WHITEMAN AFB   PTSUNNY   79  58  48 S24G32    29.86F
WARRENSBURG    CLOUDY    77  55  47 S23G29    29.83F
OSAGE BEACH    MOSUNNY   84  54  34 SW15G21   29.94F

$$
MOZ051-052-059>065-032100-
...EAST CENTRAL MISSOURI...

CITY           SKY/WX    TMP DP  RH WIND       PRES   REMARKS
ST LOUIS INTL  PTSUNNY   85  50  29 S13       29.96F
SPIRIT OF STL  MOSUNNY   83  49  30 S13G24    29.94F
ST CHARLES     MOSUNNY   83  50  31 SW18G26   29.94F

$$
MOZ072>076-082>087-097>100-106>115-032100-
...SOUTH CENTRAL AND SOUTHEAST MISSOURI...

CITY           SKY/WX    TMP DP  RH WIND       PRES   REMARKS
CAPE GIRARDEAU MOSUNNY   80  45  28 S13G21    30.03F
FARMINGTON     SUNNY     81  48  32 SW10G22   30.05S
POPLAR BLUFF   MOSUNNY   80  50  34 SW8       30.02F
WEST PLAINS    MOSUNNY   77  50  38 S10G20    30.03F

$$



USA.gov is the U.S. government's official web portal to all federal, state and local government web resources and services.